[[{"header":{"parameterUnit":"m.s-1","parameterCategory":1,"la1":30.2992,"la2":30.254,"lo1":-89.0895,"lo2":-89.0443,"dy":0.0025,"dx":0.0025,"nx":19,"ny":19,"refTime":"2026-05-09T09:00:00:Z","depth":0,"parameterNumber":2,"parameterNumberName":"U-component_of_WINDS"},"data":[0,0,0,-2.3281,-2.3281,-2.331,-2.3311,-2.3354,-2.3354,0,0,0,0,0,0,0,0,0,0,0,-2.3276,-2.3277,-2.3281,-2.3282,-2.331,-2.3311,-2.3354,-2.3354,0,0,0,0,0,0,0,0,0,0,0,-2.3276,-2.3276,-2.3277,-2.3282,-2.331,-2.3311,-2.3353,-2.3329,0,0,0,0,0,0,0,0,0,0,-2.33,-2.33,-2.3276,-2.3277,-2.3282,-2.331,-2.3311,-2.3328,-2.3331,-2.3343,0,-2.3356,0,-2.3356,-2.3357,-2.3358,0,0,0,-2.3278,-2.3297,-2.3302,-2.3277,-2.3282,-2.331,-2.3297,-2.333,-2.3333,-2.3347,-2.3356,-2.3358,-2.3356,-2.3358,-2.3358,-2.3441,-2.3441,0,0,-2.3277,-2.3283,-2.33,-2.3304,-2.33,-2.3296,-2.3297,-2.3331,-2.3342,-2.3356,-2.3358,-2.3357,-2.3358,-2.3358,-2.344,-2.3441,0,0,0,-2.3274,-2.3282,-2.3286,-2.3303,-2.3307,-2.3297,-2.3299,-2.334,-2.3341,-2.3359,-2.3358,-2.3358,-2.3359,-2.344,-2.344,-2.3473,0,0,0,-2.3273,-2.3281,-2.3285,-2.3289,-2.3307,-2.3324,-2.3307,-2.3338,-2.3342,-2.3357,-2.3358,-2.3359,-2.3439,-2.344,-2.3471,-2.3487,0,0,0,-2.3273,-2.3281,-2.3286,-2.329,-2.3302,-2.3323,-2.3326,-2.3339,-2.3341,-2.3358,-2.336,-2.3439,-2.344,-2.3469,-2.3483,-2.351,0,0,0,-2.3274,-2.3315,-2.3287,-2.3332,-2.3302,-2.3344,-2.3326,-2.3356,-2.3374,-2.3359,-2.3439,-2.344,-2.3468,-2.3482,-2.3508,-2.3533,-2.3544,0,0,-2.3329,-2.3321,-2.3347,-2.3323,-2.3371,-2.3339,-2.3391,-2.3401,-2.3397,-2.3426,-2.3428,-2.3471,-2.3483,-2.351,-2.3607,-2.3616,0,0,0,-2.3367,-2.3385,-2.3396,-2.3414,-2.3423,-2.3432,-2.3434,-2.3437,-2.3462,-2.3413,-2.3488,-2.3495,-2.351,-2.3522,-2.353,-2.3542,-2.3446,-2.3446,-2.3446,-2.3452,-2.3445,-2.3487,-2.3483,-2.3501,-2.3502,-2.3516,-2.3521,-2.3508,-2.3526,-2.3534,-2.3594,-2.3608,-2.3614,-2.3627,-2.3548,-2.3548,-2.3548,-2.3548,-2.3531,-2.3556,-2.3539,-2.3573,-2.3565,-2.3594,-2.3597,-2.3587,-2.3613,-2.3587,-2.36,-2.3571,-2.3624,-2.3635,-2.355,-2.355,-2.355,-2.3549,-2.3549,-2.3585,-2.3596,-2.36,-2.3626,-2.3646,-2.3641,-2.3666,-2.3658,-2.3651,-2.3664,-2.3671,-2.3671,-2.3668,-2.3668,-2.3668,-2.3669,-2.3669,-2.3669,-2.3669,-2.364,-2.3644,-2.3666,-2.368,-2.3691,-2.3704,-2.3706,-2.3716,-2.3725,-2.3717,-2.3717,-2.3702,-2.3631,-2.3612,-2.3672,-2.3672,-2.3671,-2.3671,-2.3671,-2.372,-2.3701,-2.3736,-2.3747,-2.3762,-2.3783,-2.3773,-2.3794,-2.3801,-2.3814,-2.3797,-2.3746,-2.3737,-2.3731,-2.3716,-2.3799,-2.3799,-2.3799,-2.3799,-2.3766,-2.3761,-2.3795,-2.3813,-2.3829,-2.3824,-2.3863,-2.3866,-2.3866,-2.387,-2.3857,-2.3836,-2.383,-2.3825,-2.3817,-2.3803,-2.3906,-2.3906,-2.3906,-2.3815,-2.3812,-2.3847,-2.3847,-2.3859,-2.3869,-2.3906,-2.3927,-2.3922,-2.391,-2.3872,-2.3868,-2.3835,-2.3824,-2.381,-2.3798,-2.3771,0,0]},{"header":{"parameterUnit":"m.s-1","parameterCategory":1,"la1":30.2992,"la2":30.254,"lo1":-89.0895,"lo2":-89.0443,"dy":0.0025,"dx":0.0025,"nx":19,"ny":19,"refTime":"2026-05-09T09:00:00:Z","depth":0,"parameterNumber":3,"parameterNumberName":"V-component_of_WINDS"},"data":[0,0,0,3.9718,3.9719,3.9771,3.9772,3.9844,3.9844,0,0,0,0,0,0,0,0,0,0,0,3.9707,3.9708,3.9718,3.972,3.9771,3.9772,3.9843,3.9844,0,0,0,0,0,0,0,0,0,0,0,3.9707,3.9708,3.9709,3.972,3.9771,3.9772,3.9843,3.9802,0,0,0,0,0,0,0,0,0,0,3.975,3.9745,3.9708,3.9709,3.972,3.9771,3.9772,3.98,3.9804,3.9823,0,3.9841,0,3.9844,3.9849,3.985,0,0,0,3.9716,3.9741,3.9751,3.9709,3.9721,3.9771,3.9747,3.9802,3.9808,3.9829,3.9842,3.9845,3.9845,3.985,3.985,3.9972,3.9973,0,0,3.9713,3.9718,3.9747,3.9755,3.9748,3.9745,3.9749,3.9805,3.9819,3.9842,3.9846,3.9846,3.9851,3.9851,3.9972,3.9973,0,0,0,3.9707,3.9717,3.9725,3.9752,3.9761,3.9747,3.9751,3.9817,3.9819,3.9847,3.9847,3.9851,3.9852,3.9971,3.9972,4.0015,0,0,0,3.9705,3.9713,3.9724,3.9728,3.976,3.979,3.9761,3.9816,3.9822,3.9847,3.9851,3.9853,3.997,3.9971,4.0012,4.0034,0,0,0,3.9702,3.9713,3.9722,3.9728,3.9751,3.9789,3.9794,3.9817,3.9822,3.985,3.9853,3.9969,3.9971,4.0009,4.003,4.0068,0,0,0,3.97,3.9758,3.9723,3.9788,3.9751,3.9816,3.9794,3.9842,3.987,3.9851,3.997,3.9972,4.0009,4.0027,4.0065,4.0102,4.0117,0,0,3.9776,3.9767,3.9805,3.9775,3.9848,3.9807,3.9886,3.9906,3.9903,3.9949,3.9952,4.0013,4.0029,4.0068,4.0204,4.0216,0,0,0,3.9831,3.9859,3.9877,3.9906,3.9924,3.9941,3.9949,3.9957,3.9996,3.9928,4.0037,4.0047,4.0069,4.0086,4.0097,4.0115,3.998,3.998,3.998,3.9946,3.9941,4.0003,4.0005,4.0033,4.0042,4.0064,4.0075,4.006,4.0086,4.0099,4.0183,4.0203,4.0211,4.0231,4.0118,4.0118,4.0119,4.0119,4.0057,4.0095,4.0076,4.013,4.0123,4.0168,4.0179,4.0167,4.0207,4.0172,4.0191,4.0153,4.0225,4.0242,4.0122,4.0121,4.0121,4.0121,4.012,4.0131,4.0149,4.0159,4.0201,4.0234,4.0233,4.0273,4.0265,4.0258,4.0277,4.0291,4.0291,4.0289,4.0285,4.0285,4.0285,4.0286,4.0286,4.0286,4.0204,4.0214,4.025,4.0276,4.0294,4.0317,4.0328,4.0345,4.0362,4.0353,4.0354,4.0336,4.0234,4.0208,4.029,4.029,4.0289,4.0289,4.0288,4.0318,4.0292,4.0347,4.0366,4.0396,4.043,4.042,4.0457,4.047,4.049,4.0469,4.0395,4.0385,4.0376,4.0355,4.047,4.047,4.047,4.047,4.0381,4.0376,4.0432,4.0462,4.0491,4.0489,4.0551,4.056,4.0565,4.0573,4.0555,4.0526,4.0518,4.0513,4.0501,4.0481,4.0626,4.0626,4.0626,4.0451,4.0449,4.0503,4.051,4.0534,4.0554,4.0612,4.0647,4.0647,4.0633,4.0579,4.0572,4.0526,4.0511,4.0494,4.0476,4.0439,0,0]}]]